sat.trackr.live / text

‹ back to catalog

STARLINK-30339

NORAD 57882 · 2023-144U

PAYLOAD ACTIVE UNKNOWN

§ Identity

Operator
Country
US
Launch date
2023-09-16
Launch site
AFETR
Launch vehicle
Mass (kg)
RCS (m²)

Purposes: comms

External: N2YO · Heavens-Above · Gunter

§ Orbital elements

Epoch: 2026-05-24T13:03:35.296128Z

Period
94.27 min
Inclination
42.9991°
Eccentricity
0.0001532
Mean motion
15.27584202 rev/d
Perigee alt
482.0 km
Apogee alt
484.1 km
Semi-major
6,861.2 km
B*
5.2356e-5
RAAN
217.2188°
Arg perigee
273.6742°
Mean anomaly
86.3935°
Rev number
14,923

§ Raw data

STARLINK-303391 57882U 23144U   26144.54415852  .00001179  00000+0  52356-4 0  99972 57882  42.9991 217.2188 0001532 273.6742  86.3935 15.27584202149236

JSON: /api/v1/satellites/57882 · /tle

For live sub-satellite position, see the globe view (requires WebGL).

§ Visibility from observer

Set your observer location to see the next 7 days of passes ≥ 10°. The values pass through the URL so the page stays shareable.

No JS? Fill the form by hand. The geolocation button needs JavaScript.